User: anonymous   Login
Location: Le Rocchette
(44.3500°N, 7.8333°E)
Time: 21:41:01
(UTC+00:00)
Language:

CZ-4B R/B - Orbit

View from above orbital plane
View from above orbital plane
View from above satellite
View from above satellite

Ground track
Ground track

The orbit data is extracted from the following two-line orbital elements,

1 27432U 02024C   20020.61786561 -.00000018 +00000-0 +14571-4 0  9992
2 27432 099.0834 020.3169 0049659 235.6226 229.7470 14.14088461912610
Epoch (UTC): 20 January 2020 14:49:43
Eccentricity: 0.0049659
inclination: 99.0834°
perigee height: 809 km
apogee height: 881 km
right ascension of ascending node: 20.3169°
argument of perigee: 235.6226°
revolutions per day: 14.14088461
mean anomaly at epoch: 229.7470°
orbit number at epoch: 91261

The dashed part of the orbit path shows where the satellite is in the earth's shadow,  

DLR